• Join FlightAware (Why Join?)
  • Login
  • US Flag 
Rudolph Flight #1: Scheduled 
11:59PM EST


 

Airport Tracker/Info


-or-


 

Live Flight TrackerFlight Track Log ✈ RPA3392 ✈ 24-Jun-2013 ✈ KMSP - KDCA

Flight Track Log - Related Links

Times and Time Zones

All times are in EDT time to prevent confusion due to time zone crossing. See the RPA3392 flight status page for this flight to view local times or setup timezone preferences in your user account.

Time Position Orientation Groundspeed Altitude Reporting Facility
EDT Latitude Longitude Course Direction KTS MPH feet Rate Location/Type
06:47PM 44.8333 -93.2000 117° Southeast 180 207 2,900  Level Minneapolis TRACON
06:48PM 44.8000 -93.1167 119° Southeast 260 299 4,900 2,460 Climbing Minneapolis TRACON
06:49PM 44.7198 -92.6324 113° Southeast  Level Estimated
06:49PM 44.7667 -93.0167 115° Southeast 290 334 7,900  Level Minneapolis TRACON
06:50PM 44.6581 -92.5007 123° Southeast  Level FlightAware Approximate
06:50PM 44.7333 -92.9000 112° Southeast 300 345 10,800  Level Minneapolis TRACON
06:51PM 44.6051 -92.3514 117° Southeast  Level FlightAware Approximate
06:51PM 44.7033 -92.7603 107° East 325 374 13,900  Level Minneapolis Center
06:52PM 44.5549 -92.2133 117° Southeast  Level FlightAware Approximate
06:52PM 44.6711 -92.6389 110° East 332 382 16,300  Level Minneapolis Center
06:53PM 44.6297 -92.4842 111° Southeast 352 405 18,800 2,220 Climbing Minneapolis Center
06:54PM 44.5933 -92.3500 111° Southeast 364 419 20,900 1,980 Climbing Minneapolis Center
06:55PM 44.5542 -92.2069 111° Southeast 382 440 22,900 1,680 Climbing Minneapolis Center
06:56PM 44.4908 -92.0825 125° Southeast 390 449 24,400 1,380 Climbing Minneapolis Center
06:57PM 44.4247 -91.9567 126° Southeast 402 463 25,800 1,260 Climbing Minneapolis Center
06:58PM 44.3575 -91.8231 125° Southeast 413 475 27,100 1,380 Climbing Minneapolis Center
06:59PM 44.2908 -91.6439 117° Southeast 430 495 28,700 1,320 Climbing Minneapolis Center
07:00PM 44.2333 -91.4958 118° Southeast 434 499 29,900 1,020 Climbing Minneapolis Center
07:01PM 44.1756 -91.3447 118° Southeast 439 505 30,900 480 Climbing Minneapolis Center
07:02PM 44.1194 -91.1975 118° Southeast 444 511 31,000  Climbing Minneapolis Center
07:03PM 44.0572 -91.0344 118° Southeast 457 526 31,000  Level Minneapolis Center
07:04PM 43.9947 -90.8719 118° Southeast 472 543 31,000  Level Minneapolis Center
07:06PM 43.9053 -90.6467 119° Southeast 478 550 31,000  Level Minneapolis Center
07:07PM 43.8422 -90.4894 119° Southeast 479 551 31,000  Level Minneapolis Center
07:08PM 43.7667 -90.3014 119° Southeast 479 551 31,000  Level Minneapolis Center
07:09PM 43.7036 -90.1403 118° Southeast 477 549 31,000  Level Minneapolis Center
07:10PM 43.6367 -89.9817 120° Southeast 480 552 31,000  Level Chicago Center
07:11PM 43.5497 -89.8422 131° Southeast 479 551 31,000  Level Chicago Center
07:12PM 43.4792 -89.6897 122° Southeast 483 556 31,000  Level Chicago Center
07:13PM 43.4528 -89.5064 101° East 487 560 31,000  Level Chicago Center
07:14PM 43.4256 -89.3264 102° East 481 554 31,000  Level Chicago Center
07:15PM 43.3986 -89.1478 102° East 479 551 31,000  Level Chicago Center
07:16PM 43.3719 -88.9689 102° East 478 550 31,000  Level Chicago Center
07:17PM 43.3406 -88.7650 102° East 471 542 31,000  Level Chicago Center
07:18PM 43.3122 -88.5906 103° East 473 544 31,000  Level Chicago Center
07:19PM 43.2844 -88.4125 102° East 486 559 31,000  Level Chicago Center
07:20PM 43.2569 -88.2331 102° East 487 560 31,000  Level Chicago Center
07:21PM 43.2283 -88.0542 102° East 484 557 31,000  Level Chicago Center
07:22PM 43.1997 -87.8733 102° East 486 559 31,000  Level Chicago Center
07:23PM 43.1658 -87.6617 102° East 488 562 31,000  Level Chicago Center
07:24PM 43.1361 -87.4839 103° East 482 555 31,000  Level Chicago Center
07:25PM 43.1108 -87.3328 103° East 480 552 31,000  Level Chicago Center
07:26PM 43.0747 -87.1189 103° East 482 555 31,000  Level Chicago Center
07:27PM 43.0453 -86.9439 103° East 477 549 31,000  Level Chicago Center
07:28PM 43.0150 -86.7678 103° East 478 550 31,000  Level Chicago Center
07:29PM 42.9836 -86.5933 104° East 477 549 31,000  Level Chicago Center
07:30PM 42.9519 -86.4181 104° East 477 549 31,000  Level Chicago Center
07:31PM 42.9211 -86.2425 103° East 480 552 31,000  Level Chicago Center
07:32PM 42.8889 -86.0703 104° East 480 552 31,000  Level Chicago Center
07:33PM 42.8533 -85.8619 103° East 482 555 31,000  Level Chicago Center
07:34PM 42.8211 -85.6875 104° East 482 555 31,000  Level Chicago Center
07:35PM 42.7889 -85.5128 104° East 482 555 31,000  Level Chicago Center
07:36PM 42.7353 -85.3500 114° Southeast 477 549 31,000  Level Chicago Center
07:37PM 42.6956 -85.1789 107° East 475 547 31,000  Level Chicago Center
07:38PM 42.6583 -85.0058 106° East 478 550 31,000  Level Chicago Center
07:39PM 42.5975 -84.8481 118° Southeast 475 547 31,000  Level Chicago Center
07:40PM 42.5358 -84.6908 118° Southeast 474 545 31,000  Level Chicago Center
07:41PM 42.4542 -84.5097 121° Southeast 470 541 31,000  Level Chicago Center
07:42PM 42.3875 -84.3703 123° Southeast 470 541 31,000  Level Cleveland Center
07:43PM 42.3194 -84.2172 121° Southeast 470 541 31,000  Level Cleveland Center
07:44PM 42.2489 -84.0700 123° Southeast 470 541 31,000  Level Cleveland Center
07:45PM 42.1783 -83.9178 122° Southeast 475 547 31,000  Level Cleveland Center
07:46PM 42.1097 -83.7658 121° Southeast 475 547 31,000  Level Cleveland Center
07:47PM 42.0467 -83.6283 122° Southeast 480 552 31,000  Level Cleveland Center
07:48PM 41.9778 -83.4769 121° Southeast 480 552 31,000  Level Cleveland Center
07:49PM 41.9064 -83.3231 122° Southeast 480 552 31,000  Level Cleveland Center
07:50PM 41.8389 -83.1725 121° Southeast 480 552 31,000  Level Cleveland Center
07:51PM 41.7672 -83.0219 123° Southeast 480 552 31,000  Level Cleveland Center
07:52PM 41.6953 -82.8719 123° Southeast 480 552 31,000  Level Cleveland Center
07:53PM 41.6172 -82.7078 122° Southeast 480 552 31,000  Level Cleveland Center
07:54PM 41.5428 -82.5528 123° Southeast 485 558 31,000  Level Cleveland Center
07:55PM 41.4681 -82.4119 125° Southeast 484 557 31,000  Level Cleveland Center
07:56PM 41.3678 -82.2875 137° Southeast 479 551 31,000  Level Cleveland Center
07:57PM 41.2694 -82.1661 137° Southeast 479 551 31,000  Level Cleveland Center
07:58PM 41.1750 -82.0453 136° Southeast 480 552 31,000  Level Cleveland Center
07:59PM 41.0703 -81.9244 139° Southeast 490 564 31,000  Level Cleveland Center
08:00PM 40.9736 -81.8014 136° Southeast 490 564 31,000  Level Cleveland Center
08:01PM 40.8747 -81.6814 137° Southeast 485 558 31,000  Level Cleveland Center
08:02PM 40.7739 -81.5619 138° Southeast 485 558 31,000  Level Cleveland Center
08:03PM 40.6747 -81.4400 137° Southeast 491 565 31,000  Level Cleveland Center
08:04PM 40.5775 -81.3183 136° Southeast 486 559 31,000  Level Cleveland Center
08:05PM 40.4783 -81.2028 138° Southeast 486 559 31,000  Level Cleveland Center
08:06PM 40.3786 -81.0819 137° Southeast 486 559 31,000  Level Cleveland Center
08:07PM 40.2769 -80.9614 138° Southeast 491 565 31,000  Level Cleveland Center
08:08PM 40.1772 -80.8439 138° Southeast 491 565 31,000  Level Cleveland Center
08:09PM 40.0775 -80.7242 137° Southeast 491 565 31,000  Level Cleveland Center
08:10PM 40.0006 -80.5967 128° Southeast 496 571 31,000  Level Cleveland Center
08:11PM 39.9233 -80.4558 126° Southeast 490 564 31,000  Level Cleveland Center
08:14PM 39.7469 -80.1311 125° Southeast 508 585 31,000  Level Washington Center
08:15PM 39.6689 -79.9886 125° Southeast 485 558 31,000  Level Washington Center
08:16PM 39.5786 -79.8297 126° Southeast 485 558 31,000  Level Washington Center
08:17PM 39.5003 -79.6878 126° Southeast 490 564 31,000  Level Washington Center
08:18PM 39.4217 -79.5436 125° Southeast 490 564 31,000  Level Washington Center
08:19PM 39.3431 -79.4025 126° Southeast 490 564 31,000 -720 Level Washington Center
08:20PM 39.2778 -79.2864 126° Southeast 495 570 29,600 -2,040 Descending Washington Center
08:21PM 39.2336 -79.0939 106° East 463 533 26,900 -1,980 Descending Washington Center
08:22PM 39.2214 -78.9353 96° East 451 519 25,700 -1,800 Descending Washington Center
08:23PM 39.2047 -78.7764 98° East 444 511 23,300 -2,400 Descending Washington Center
08:24PM 39.1919 -78.6286 96° East 437 503 21,000 -2,220 Descending Washington Center
08:25PM 39.1767 -78.4861 98° East 415 478 18,900 -2,100 Descending Washington Center
08:26PM 39.1592 -78.3461 99° East 402 463 16,800 -1,560 Descending Washington Center
08:27PM 39.1267 -78.2164 108° East 389 448 15,800 -1,020 Descending Washington Center
08:28PM 39.0958 -78.0897 107° East 377 434 14,800 -1,260 Descending Washington Center
08:29PM 39.0631 -77.9656 109° East 371 427 13,300 -1,500 Descending Washington Center
08:30PM 39.0319 -77.8442 108° East 359 413 11,800 -1,200 Descending Washington Center
08:31PM 39.0047 -77.7392 108° East 349 402 11,000 -660 Descending Washington Center
08:32PM 38.9756 -77.6261 108° East 317 365 10,600 -900 Descending Washington Center
08:33PM 38.9500 -77.5167 107° East 263 303 9,100 -1,140 Descending Potomac TRACON
08:34PM 38.9667 -77.4333 76° East 233 268 8,200 -1,200 Descending Potomac TRACON
08:35PM 39.0000 -77.3667 57° Northeast 218 251 6,600 -1,440 Descending Potomac TRACON
08:36PM 39.0167 -77.2833 76° East 212 244 5,300 -1,260 Descending Potomac TRACON
08:38PM 39.0167 -77.1833 90° East 205 236 3,000 -840 Descending Potomac TRACON
08:39PM 38.9833 -77.1667 159° South 160 184 2,900 -480 Descending Potomac TRACON
08:40PM 38.9500 -77.1333 142° Southeast 154 177 2,100 -840 Descending Potomac TRACON
08:41PM 38.9167 -77.1000 142° Southeast 142 163 1,300 -720 Descending Potomac TRACON
08:42PM 38.8833 -77.0500 131° Southeast 152 175 700 -600 Descending Potomac TRACON